Year,Month,Day,Hour,Minute,Value (Times are PST for temperature in C)
2016,08,12,00,00,17.10
2016,08,12,00,01,17.10
2016,08,12,00,02,17.10
2016,08,12,00,03,17.10
2016,08,12,00,04,17.10
2016,08,12,00,05,17.10
2016,08,12,00,06,17.10
2016,08,12,00,07,17.10
2016,08,12,00,08,17.10
2016,08,12,00,09,17.10
2016,08,12,00,10,17.10
2016,08,12,00,11,17.10
2016,08,12,00,12,17.10
2016,08,12,00,13,17.10
2016,08,12,00,14,17.10
2016,08,12,00,15,17.10
2016,08,12,00,16,17.10
2016,08,12,00,17,17.10
2016,08,12,00,18,17.10
2016,08,12,00,19,17.10
2016,08,12,00,20,17.10
2016,08,12,00,21,17.10
2016,08,12,00,22,17.10
2016,08,12,00,23,17.10
2016,08,12,00,24,17.00
2016,08,12,00,25,17.00
2016,08,12,00,26,16.90
2016,08,12,00,27,16.90
2016,08,12,00,28,16.90
2016,08,12,00,29,16.80
2016,08,12,00,30,16.80
2016,08,12,00,31,16.70
2016,08,12,00,32,16.70
2016,08,12,00,33,16.70
2016,08,12,00,34,16.70
2016,08,12,00,35,16.70
2016,08,12,00,36,16.70
2016,08,12,00,37,16.70
2016,08,12,00,38,16.70
2016,08,12,00,39,16.70
2016,08,12,00,40,16.60
2016,08,12,00,41,16.60
2016,08,12,00,42,16.60
2016,08,12,00,43,16.60
2016,08,12,00,44,16.50
2016,08,12,00,45,16.40
2016,08,12,00,46,16.40
2016,08,12,00,47,16.40
2016,08,12,00,48,16.40
2016,08,12,00,49,16.40
2016,08,12,00,50,16.40
2016,08,12,00,51,16.40
2016,08,12,00,52,16.40
2016,08,12,00,53,16.40
2016,08,12,00,54,16.40
2016,08,12,00,55,16.40
2016,08,12,00,56,16.40
2016,08,12,00,57,16.40
2016,08,12,00,58,16.40
2016,08,12,00,59,16.30
2016,08,12,01,00,16.30
2016,08,12,01,01,16.30
2016,08,12,01,02,16.30
2016,08,12,01,03,16.20
2016,08,12,01,04,16.20
2016,08,12,01,05,16.20
2016,08,12,01,06,16.20
2016,08,12,01,07,16.10
2016,08,12,01,08,16.10
2016,08,12,01,09,16.10
2016,08,12,01,10,16.10
2016,08,12,01,11,16.10
2016,08,12,01,12,16.10
2016,08,12,01,13,16.00
2016,08,12,01,14,15.90
2016,08,12,01,15,15.90
2016,08,12,01,16,15.90
2016,08,12,01,17,15.90
2016,08,12,01,18,15.90
2016,08,12,01,19,15.90
2016,08,12,01,20,15.80
2016,08,12,01,21,15.80
2016,08,12,01,22,15.80
2016,08,12,01,23,15.80
2016,08,12,01,24,15.80
2016,08,12,01,25,15.80
2016,08,12,01,26,15.80
2016,08,12,01,27,15.80
2016,08,12,01,28,15.80
2016,08,12,01,29,15.80
2016,08,12,01,30,15.80
2016,08,12,01,31,15.70
2016,08,12,01,32,15.70
2016,08,12,01,33,15.70
2016,08,12,01,34,15.70
2016,08,12,01,35,15.70
2016,08,12,01,36,15.70
2016,08,12,01,37,15.70
2016,08,12,01,38,15.60
2016,08,12,01,39,15.60
2016,08,12,01,40,15.60
2016,08,12,01,41,15.60
2016,08,12,01,42,15.60
2016,08,12,01,43,15.60
2016,08,12,01,44,15.60
2016,08,12,01,45,15.50
2016,08,12,01,46,15.50
2016,08,12,01,47,15.50
2016,08,12,01,48,15.50
2016,08,12,01,49,15.50
2016,08,12,01,50,15.50
2016,08,12,01,51,15.40
2016,08,12,01,52,15.40
2016,08,12,01,53,15.40
2016,08,12,01,54,15.40
2016,08,12,01,55,15.40
2016,08,12,01,56,15.30
2016,08,12,01,57,15.30
2016,08,12,01,58,15.30
2016,08,12,01,59,15.30
2016,08,12,02,00,15.30
2016,08,12,02,01,15.30
2016,08,12,02,02,15.30
2016,08,12,02,03,15.30
2016,08,12,02,04,15.30
2016,08,12,02,05,15.30
2016,08,12,02,06,15.30
2016,08,12,02,07,15.20
2016,08,12,02,08,15.20
2016,08,12,02,09,15.20
2016,08,12,02,10,15.20
2016,08,12,02,11,15.20
2016,08,12,02,12,15.10
2016,08,12,02,13,15.10
2016,08,12,02,14,15.10
2016,08,12,02,15,15.10
2016,08,12,02,16,15.10
2016,08,12,02,17,15.10
2016,08,12,02,18,15.10
2016,08,12,02,19,15.10
2016,08,12,02,20,15.20
2016,08,12,02,21,15.20
2016,08,12,02,22,15.20
2016,08,12,02,23,15.20
2016,08,12,02,24,15.30
2016,08,12,02,25,15.20
2016,08,12,02,26,15.20
2016,08,12,02,27,15.20
2016,08,12,02,28,15.20
2016,08,12,02,29,15.20
2016,08,12,02,30,15.20
2016,08,12,02,31,15.10
2016,08,12,02,32,15.10
2016,08,12,02,33,15.10
2016,08,12,02,34,15.10
2016,08,12,02,35,15.10
2016,08,12,02,36,15.10
2016,08,12,02,37,15.10
2016,08,12,02,38,15.00
2016,08,12,02,39,15.00
2016,08,12,02,40,15.00
2016,08,12,02,41,15.00
2016,08,12,02,42,15.00
2016,08,12,02,43,15.00
2016,08,12,02,44,14.90
2016,08,12,02,45,14.90
2016,08,12,02,46,14.90
2016,08,12,02,47,14.90
2016,08,12,02,48,14.90
2016,08,12,02,49,14.90
2016,08,12,02,50,14.90
2016,08,12,02,51,14.90
2016,08,12,02,52,14.90
2016,08,12,02,53,14.90
2016,08,12,02,54,14.90
2016,08,12,02,55,14.90
2016,08,12,02,56,14.90
2016,08,12,02,57,14.90
2016,08,12,02,58,14.80
2016,08,12,02,59,14.80
2016,08,12,03,00,14.80
2016,08,12,03,01,14.80
2016,08,12,03,02,14.80
2016,08,12,03,03,14.80
2016,08,12,03,04,14.80
2016,08,12,03,05,14.80
2016,08,12,03,06,14.80
2016,08,12,03,07,14.80
2016,08,12,03,08,14.80
2016,08,12,03,09,14.80
2016,08,12,03,10,14.80
2016,08,12,03,11,14.80
2016,08,12,03,12,14.80
2016,08,12,03,13,14.80
2016,08,12,03,14,14.80
2016,08,12,03,15,14.80
2016,08,12,03,16,14.80
2016,08,12,03,17,14.80
2016,08,12,03,18,14.80
2016,08,12,03,19,14.80
2016,08,12,03,20,14.80
2016,08,12,03,21,14.80
2016,08,12,03,22,14.80
2016,08,12,03,23,14.80
2016,08,12,03,24,14.80
2016,08,12,03,25,14.80
2016,08,12,03,26,14.80
2016,08,12,03,27,14.80
2016,08,12,03,28,14.80
2016,08,12,03,29,14.80
2016,08,12,03,30,14.80
2016,08,12,03,31,14.80
2016,08,12,03,32,14.80
2016,08,12,03,33,14.80
2016,08,12,03,34,14.80
2016,08,12,03,35,14.80
2016,08,12,03,36,14.80
2016,08,12,03,37,14.80
2016,08,12,03,38,14.80
2016,08,12,03,39,14.80
2016,08,12,03,40,14.80
2016,08,12,03,41,14.80
2016,08,12,03,42,14.80
2016,08,12,03,43,14.80
2016,08,12,03,44,14.80
2016,08,12,03,45,14.80
2016,08,12,03,46,14.80
2016,08,12,03,47,14.80
2016,08,12,03,48,14.80
2016,08,12,03,49,14.80
2016,08,12,03,50,14.80
2016,08,12,03,51,14.80
2016,08,12,03,52,14.80
2016,08,12,03,53,14.80
2016,08,12,03,54,14.80
2016,08,12,03,55,14.80
2016,08,12,03,56,14.80
2016,08,12,03,57,14.80
2016,08,12,03,58,14.80
2016,08,12,03,59,14.80
2016,08,12,04,00,14.80
2016,08,12,04,01,14.80
2016,08,12,04,02,14.80
2016,08,12,04,03,14.80
2016,08,12,04,04,14.80
2016,08,12,04,05,14.80
2016,08,12,04,06,14.80
2016,08,12,04,07,14.80
2016,08,12,04,08,14.80
2016,08,12,04,09,14.80
2016,08,12,04,10,14.80
2016,08,12,04,11,14.80
2016,08,12,04,12,14.80
2016,08,12,04,13,14.80
2016,08,12,04,14,14.80
2016,08,12,04,15,14.80
2016,08,12,04,16,14.70
2016,08,12,04,17,14.70
2016,08,12,04,18,14.70
2016,08,12,04,19,14.70
2016,08,12,04,20,14.70
2016,08,12,04,21,14.70
2016,08,12,04,22,14.70
2016,08,12,04,23,14.70
2016,08,12,04,24,14.70
2016,08,12,04,25,14.80
2016,08,12,04,26,14.80
2016,08,12,04,27,14.80
2016,08,12,04,28,14.80
2016,08,12,04,29,14.80
2016,08,12,04,30,14.80
2016,08,12,04,31,14.80
2016,08,12,04,32,14.80
2016,08,12,04,33,14.80
2016,08,12,04,34,14.80
2016,08,12,04,35,14.80
2016,08,12,04,36,14.80
2016,08,12,04,37,14.80
2016,08,12,04,38,14.80
2016,08,12,04,39,14.80
2016,08,12,04,40,14.80
2016,08,12,04,41,14.80
2016,08,12,04,42,14.80
2016,08,12,04,43,14.80
2016,08,12,04,44,14.70
2016,08,12,04,45,14.70
2016,08,12,04,46,14.70
2016,08,12,04,47,14.70
2016,08,12,04,48,14.70
2016,08,12,04,49,14.70
2016,08,12,04,50,14.70
2016,08,12,04,51,14.70
2016,08,12,04,52,14.70
2016,08,12,04,53,14.70
2016,08,12,04,54,14.70
2016,08,12,04,55,14.70
2016,08,12,04,56,14.70
2016,08,12,04,57,14.70
2016,08,12,04,58,14.70
2016,08,12,04,59,14.70
2016,08,12,05,00,14.70
2016,08,12,05,01,14.70
2016,08,12,05,02,14.70
2016,08,12,05,03,14.70
2016,08,12,05,04,14.70
2016,08,12,05,05,14.70
2016,08,12,05,06,14.70
2016,08,12,05,07,14.70
2016,08,12,05,08,14.70
2016,08,12,05,09,14.70
2016,08,12,05,10,14.70
2016,08,12,05,11,14.70
2016,08,12,05,12,14.70
2016,08,12,05,13,14.70
2016,08,12,05,14,14.70
2016,08,12,05,15,14.70
2016,08,12,05,16,14.60
2016,08,12,05,17,14.60
2016,08,12,05,18,14.60
2016,08,12,05,19,14.60
2016,08,12,05,20,14.60
2016,08,12,05,21,14.60
2016,08,12,05,22,14.70
2016,08,12,05,23,14.70
2016,08,12,05,24,14.70
2016,08,12,05,25,14.60
2016,08,12,05,26,14.60
2016,08,12,05,27,14.60
2016,08,12,05,28,14.60
2016,08,12,05,29,14.60
2016,08,12,05,30,14.70
2016,08,12,05,31,14.70
2016,08,12,05,32,14.70
2016,08,12,05,33,14.70
2016,08,12,05,34,14.60
2016,08,12,05,35,14.60
2016,08,12,05,36,14.60
2016,08,12,05,37,14.60
2016,08,12,05,38,14.60
2016,08,12,05,39,14.70
2016,08,12,05,40,14.70
2016,08,12,05,41,14.70
2016,08,12,05,42,14.80
2016,08,12,05,43,14.80
2016,08,12,05,44,14.80
2016,08,12,05,45,14.80
2016,08,12,05,46,14.80
2016,08,12,05,47,14.80
2016,08,12,05,48,14.90
2016,08,12,05,49,14.90
2016,08,12,05,50,14.90
2016,08,12,05,51,14.90
2016,08,12,05,52,14.90
2016,08,12,05,53,15.00
2016,08,12,05,54,15.00
2016,08,12,05,55,15.00
2016,08,12,05,56,15.00
2016,08,12,05,57,14.90
2016,08,12,05,58,14.90
2016,08,12,05,59,14.90
2016,08,12,06,00,14.80
2016,08,12,06,01,14.80
2016,08,12,06,02,14.80
2016,08,12,06,03,14.80
2016,08,12,06,04,14.80
2016,08,12,06,05,14.70
2016,08,12,06,06,14.70
2016,08,12,06,07,14.70
2016,08,12,06,08,14.70
2016,08,12,06,09,14.70
2016,08,12,06,10,14.70
2016,08,12,06,11,14.60
2016,08,12,06,12,14.60
2016,08,12,06,13,14.60
2016,08,12,06,14,14.60
2016,08,12,06,15,14.60
2016,08,12,06,16,14.60
2016,08,12,06,17,14.60
2016,08,12,06,18,14.60
2016,08,12,06,19,14.60
2016,08,12,06,20,14.70
2016,08,12,06,21,14.70
2016,08,12,06,22,14.70
2016,08,12,06,23,14.70
2016,08,12,06,24,14.70
2016,08,12,06,25,14.70
2016,08,12,06,26,14.70
2016,08,12,06,27,14.70
2016,08,12,06,28,14.70
2016,08,12,06,29,14.80
2016,08,12,06,30,14.80
2016,08,12,06,31,14.80
2016,08,12,06,32,14.70
2016,08,12,06,33,14.70
2016,08,12,06,34,14.70
2016,08,12,06,35,14.70
2016,08,12,06,36,14.70
2016,08,12,06,37,14.70
2016,08,12,06,38,14.70
2016,08,12,06,39,14.70
2016,08,12,06,40,14.60
2016,08,12,06,41,14.70
2016,08,12,06,42,14.60
2016,08,12,06,43,14.70
2016,08,12,06,44,14.60
2016,08,12,06,45,14.60
2016,08,12,06,46,14.60
2016,08,12,06,47,14.70
2016,08,12,06,48,14.70
2016,08,12,06,49,14.70
2016,08,12,06,50,14.70
2016,08,12,06,51,14.70
2016,08,12,06,52,14.80
2016,08,12,06,53,14.80
2016,08,12,06,54,14.80
2016,08,12,06,55,14.90
2016,08,12,06,56,15.00
2016,08,12,06,57,15.00
2016,08,12,06,58,15.00
2016,08,12,06,59,15.10
2016,08,12,07,00,15.20
2016,08,12,07,01,15.20
2016,08,12,07,02,15.20
2016,08,12,07,03,15.20
2016,08,12,07,04,15.20
2016,08,12,07,05,15.30
2016,08,12,07,06,15.30
2016,08,12,07,07,15.40
2016,08,12,07,08,15.50
2016,08,12,07,09,15.60
2016,08,12,07,10,15.60
2016,08,12,07,11,15.70
2016,08,12,07,12,15.70
2016,08,12,07,13,15.80
2016,08,12,07,14,15.80
2016,08,12,07,15,15.80
2016,08,12,07,16,15.80
2016,08,12,07,17,15.80
2016,08,12,07,18,15.80
2016,08,12,07,19,15.80
2016,08,12,07,20,15.90
2016,08,12,07,21,15.90
2016,08,12,07,22,15.90
2016,08,12,07,23,16.10
2016,08,12,07,24,16.10
2016,08,12,07,25,16.20
2016,08,12,07,26,16.20
2016,08,12,07,27,16.30
2016,08,12,07,28,16.30
2016,08,12,07,29,16.40
2016,08,12,07,30,16.40
2016,08,12,07,31,16.40
2016,08,12,07,32,16.40
2016,08,12,07,33,16.40
2016,08,12,07,34,16.40
2016,08,12,07,35,16.40
2016,08,12,07,36,16.40
2016,08,12,07,37,16.40
2016,08,12,07,38,16.40
2016,08,12,07,39,16.40
2016,08,12,07,40,16.50
2016,08,12,07,41,16.60
2016,08,12,07,42,16.70
2016,08,12,07,43,16.70
2016,08,12,07,44,16.90
2016,08,12,07,45,17.00
2016,08,12,07,46,17.10
2016,08,12,07,47,17.20
2016,08,12,07,48,17.30
2016,08,12,07,49,17.40
2016,08,12,07,50,17.50
2016,08,12,07,51,17.60
2016,08,12,07,52,17.70
2016,08,12,07,53,17.80
2016,08,12,07,54,17.90
2016,08,12,07,55,17.90
2016,08,12,07,56,17.90
2016,08,12,07,57,17.90
2016,08,12,07,58,17.90
2016,08,12,07,59,17.90
2016,08,12,08,00,17.90
2016,08,12,08,01,17.90
2016,08,12,08,02,17.90
2016,08,12,08,03,18.00
2016,08,12,08,04,18.10
2016,08,12,08,05,18.10
2016,08,12,08,06,18.10
2016,08,12,08,07,18.10
2016,08,12,08,08,18.10
2016,08,12,08,09,18.10
2016,08,12,08,10,18.20
2016,08,12,08,11,18.10
2016,08,12,08,12,18.00
2016,08,12,08,13,17.90
2016,08,12,08,14,17.70
2016,08,12,08,15,17.60
2016,08,12,08,16,17.50
2016,08,12,08,17,17.30
2016,08,12,08,18,17.20
2016,08,12,08,19,17.20
2016,08,12,08,20,17.20
2016,08,12,08,21,17.20
2016,08,12,08,22,17.20
2016,08,12,08,23,17.30
2016,08,12,08,24,17.30
2016,08,12,08,25,17.30
2016,08,12,08,26,17.40
2016,08,12,08,27,17.40
2016,08,12,08,28,17.40
2016,08,12,08,29,17.40
2016,08,12,08,30,17.40
2016,08,12,08,31,17.40
2016,08,12,08,32,17.30
2016,08,12,08,33,17.30
2016,08,12,08,34,17.20
2016,08,12,08,35,17.10
2016,08,12,08,36,17.00
2016,08,12,08,37,17.00
2016,08,12,08,38,16.90
2016,08,12,08,39,16.90
2016,08,12,08,40,16.90
2016,08,12,08,41,16.90
2016,08,12,08,42,16.90
2016,08,12,08,43,17.00
2016,08,12,08,44,17.00
2016,08,12,08,45,17.00
2016,08,12,08,46,17.10
2016,08,12,08,47,17.10
2016,08,12,08,48,17.10
2016,08,12,08,49,17.00
2016,08,12,08,50,16.90
2016,08,12,08,51,16.80
2016,08,12,08,52,16.70
2016,08,12,08,53,16.70
2016,08,12,08,54,16.60
2016,08,12,08,55,16.60
2016,08,12,08,56,16.60
2016,08,12,08,57,16.70
2016,08,12,08,58,16.70
2016,08,12,08,59,16.70
2016,08,12,09,00,16.70
2016,08,12,09,01,16.90
2016,08,12,09,02,16.90
2016,08,12,09,03,16.90
2016,08,12,09,04,17.00
2016,08,12,09,05,16.90
2016,08,12,09,06,16.90
2016,08,12,09,07,17.00
2016,08,12,09,08,17.00
2016,08,12,09,09,17.00
2016,08,12,09,10,17.10
2016,08,12,09,11,17.10
2016,08,12,09,12,17.10
2016,08,12,09,13,17.10
2016,08,12,09,14,17.20
2016,08,12,09,15,17.30
2016,08,12,09,16,17.40
2016,08,12,09,17,17.50
2016,08,12,09,18,17.70
2016,08,12,09,19,17.80
2016,08,12,09,20,17.90
2016,08,12,09,21,18.00
2016,08,12,09,22,18.20
2016,08,12,09,23,18.40
2016,08,12,09,24,18.50
2016,08,12,09,25,18.70
2016,08,12,09,26,18.90
2016,08,12,09,27,19.10
2016,08,12,09,28,19.30
2016,08,12,09,29,19.40
2016,08,12,09,30,19.60
2016,08,12,09,31,19.70
2016,08,12,09,32,19.90
2016,08,12,09,33,20.00
2016,08,12,09,34,20.20
2016,08,12,09,35,20.30
2016,08,12,09,36,20.40
2016,08,12,09,37,20.60
2016,08,12,09,38,20.70
2016,08,12,09,39,20.80
2016,08,12,09,40,20.80
2016,08,12,09,41,20.90
2016,08,12,09,42,21.00
2016,08,12,09,43,20.90
2016,08,12,09,44,20.90
2016,08,12,09,45,20.90
2016,08,12,09,46,21.00
2016,08,12,09,47,21.00
2016,08,12,09,48,21.10
2016,08,12,09,49,21.20
2016,08,12,09,50,21.30
2016,08,12,09,51,21.30
2016,08,12,09,52,21.40
2016,08,12,09,53,21.40
2016,08,12,09,54,21.40
2016,08,12,09,55,21.40
2016,08,12,09,56,21.40
2016,08,12,09,57,21.40
2016,08,12,09,58,21.50
2016,08,12,09,59,21.60
2016,08,12,10,00,21.60
2016,08,12,10,01,21.60
2016,08,12,10,02,21.60
2016,08,12,10,03,21.70
2016,08,12,10,04,21.80
2016,08,12,10,05,21.80
2016,08,12,10,06,21.90
2016,08,12,10,07,21.90
2016,08,12,10,08,21.90
2016,08,12,10,09,21.90
2016,08,12,10,10,21.90
2016,08,12,10,11,21.90
2016,08,12,10,12,21.90
2016,08,12,10,13,21.90
2016,08,12,10,14,21.90
2016,08,12,10,15,21.90
2016,08,12,10,16,21.90
2016,08,12,10,17,21.90
2016,08,12,10,18,21.90
2016,08,12,10,19,21.90
2016,08,12,10,20,22.00
2016,08,12,10,21,22.00
2016,08,12,10,22,22.10
2016,08,12,10,23,22.10
2016,08,12,10,24,22.20
2016,08,12,10,25,22.20
2016,08,12,10,26,22.20
2016,08,12,10,27,22.20
2016,08,12,10,28,22.20
2016,08,12,10,29,22.20
2016,08,12,10,30,22.20
2016,08,12,10,31,22.20
2016,08,12,10,32,22.20
2016,08,12,10,33,22.20
2016,08,12,10,34,22.30
2016,08,12,10,35,22.30
2016,08,12,10,36,22.30
2016,08,12,10,37,22.30
2016,08,12,10,38,22.30
2016,08,12,10,39,22.30
2016,08,12,10,40,22.30
2016,08,12,10,41,22.30
2016,08,12,10,42,22.30
2016,08,12,10,43,22.30
2016,08,12,10,44,22.30
2016,08,12,10,45,22.30
2016,08,12,10,46,22.30
2016,08,12,10,47,22.30
2016,08,12,10,48,22.30
2016,08,12,10,49,22.40
2016,08,12,10,50,22.40
2016,08,12,10,51,22.40
2016,08,12,10,52,22.40
2016,08,12,10,53,22.50
2016,08,12,10,54,22.50
2016,08,12,10,55,22.60
2016,08,12,10,56,22.60
2016,08,12,10,57,22.70
2016,08,12,10,58,22.70
2016,08,12,10,59,22.80
2016,08,12,11,00,22.80
2016,08,12,11,01,22.90
2016,08,12,11,02,22.90
2016,08,12,11,03,22.90
2016,08,12,11,04,23.00
2016,08,12,11,05,23.10
2016,08,12,11,06,23.10
2016,08,12,11,07,23.10
2016,08,12,11,08,23.20
2016,08,12,11,09,23.20
2016,08,12,11,10,23.20
2016,08,12,11,11,23.30
2016,08,12,11,12,23.30
2016,08,12,11,13,23.30
2016,08,12,11,14,23.20
2016,08,12,11,15,23.20
2016,08,12,11,16,23.20
2016,08,12,11,17,23.30
2016,08,12,11,18,23.30
2016,08,12,11,19,23.30
2016,08,12,11,20,23.30
2016,08,12,11,21,23.30
2016,08,12,11,22,23.30
2016,08,12,11,23,23.30
2016,08,12,11,24,23.40
2016,08,12,11,25,23.40
2016,08,12,11,26,23.40
2016,08,12,11,27,23.40
2016,08,12,11,28,23.50
2016,08,12,11,29,23.60
2016,08,12,11,30,23.60
2016,08,12,11,31,23.70
2016,08,12,11,32,23.80
2016,08,12,11,33,23.90
2016,08,12,11,34,24.00
2016,08,12,11,35,24.10
2016,08,12,11,36,24.10
2016,08,12,11,37,24.10
2016,08,12,11,38,24.10
2016,08,12,11,39,24.20
2016,08,12,11,40,24.20
2016,08,12,11,41,24.20
2016,08,12,11,42,24.20
2016,08,12,11,43,24.20
2016,08,12,11,44,24.20
2016,08,12,11,45,24.20
2016,08,12,11,46,24.20
2016,08,12,11,47,24.20
2016,08,12,11,48,24.20
2016,08,12,11,49,24.20
2016,08,12,11,50,24.20
2016,08,12,11,51,24.20
2016,08,12,11,52,24.30
2016,08,12,11,53,24.30
2016,08,12,11,54,24.40
2016,08,12,11,55,24.40
2016,08,12,11,56,24.50
2016,08,12,11,57,24.50
2016,08,12,11,58,24.50
2016,08,12,11,59,24.60
2016,08,12,12,00,24.60
2016,08,12,12,01,24.60
2016,08,12,12,02,24.70
2016,08,12,12,03,24.70
2016,08,12,12,04,24.70
2016,08,12,12,05,24.70
2016,08,12,12,06,24.70
2016,08,12,12,07,24.70
2016,08,12,12,08,24.80
2016,08,12,12,09,24.80
2016,08,12,12,10,24.80
2016,08,12,12,11,24.80
2016,08,12,12,12,24.80
2016,08,12,12,13,24.80
2016,08,12,12,14,24.80
2016,08,12,12,15,24.80
2016,08,12,12,16,24.80
2016,08,12,12,17,24.80
2016,08,12,12,18,24.80
2016,08,12,12,19,24.80
2016,08,12,12,20,24.80
2016,08,12,12,21,24.90
2016,08,12,12,22,24.90
2016,08,12,12,23,24.90
2016,08,12,12,24,24.80
2016,08,12,12,25,24.50
2016,08,12,12,26,24.40
2016,08,12,12,27,24.30
2016,08,12,12,28,24.30
2016,08,12,12,29,24.10
2016,08,12,12,30,24.00
2016,08,12,12,31,23.90
2016,08,12,12,32,23.70
2016,08,12,12,33,23.70
2016,08,12,12,34,23.70
2016,08,12,12,35,23.70
2016,08,12,12,36,23.70
2016,08,12,12,37,23.60
2016,08,12,12,38,23.60
2016,08,12,12,39,23.60
2016,08,12,12,40,23.60
2016,08,12,12,41,23.40
2016,08,12,12,42,23.30
2016,08,12,12,43,23.30
2016,08,12,12,44,23.10
2016,08,12,12,45,23.00
2016,08,12,12,46,22.90
2016,08,12,12,47,22.90
2016,08,12,12,48,23.10
2016,08,12,12,49,23.30
2016,08,12,12,50,23.40
2016,08,12,12,51,23.40
2016,08,12,12,52,23.60
2016,08,12,12,53,23.70
2016,08,12,12,54,23.90
2016,08,12,12,55,24.10
2016,08,12,12,56,24.20
2016,08,12,12,57,24.40
2016,08,12,12,58,24.40
2016,08,12,12,59,24.40
2016,08,12,13,00,24.30
2016,08,12,13,01,24.10
2016,08,12,13,02,24.00
2016,08,12,13,03,23.80
2016,08,12,13,04,23.30
2016,08,12,13,05,23.30
2016,08,12,13,06,23.30
2016,08,12,13,07,23.30
2016,08,12,13,08,23.30
2016,08,12,13,09,23.20
2016,08,12,13,10,23.10
2016,08,12,13,11,23.10
2016,08,12,13,12,23.10
2016,08,12,13,13,22.90
2016,08,12,13,14,22.70
2016,08,12,13,15,22.60
2016,08,12,13,16,22.60
2016,08,12,13,17,22.30
2016,08,12,13,18,22.00
2016,08,12,13,19,21.60
2016,08,12,13,20,21.40
2016,08,12,13,21,21.30
2016,08,12,13,22,21.30
2016,08,12,13,23,21.40
2016,08,12,13,24,21.50
2016,08,12,13,25,21.70
2016,08,12,13,26,21.80
2016,08,12,13,27,21.80
2016,08,12,13,28,21.70
2016,08,12,13,29,21.60
2016,08,12,13,30,21.50
2016,08,12,13,31,21.40
2016,08,12,13,32,21.30
2016,08,12,13,33,21.30
2016,08,12,13,34,21.30
2016,08,12,13,35,21.10
2016,08,12,13,36,20.90
2016,08,12,13,37,20.80
2016,08,12,13,38,20.80
2016,08,12,13,39,20.70
2016,08,12,13,40,20.70
2016,08,12,13,41,20.70
2016,08,12,13,42,20.60
2016,08,12,13,43,20.60
2016,08,12,13,44,20.70
2016,08,12,13,45,20.80
2016,08,12,13,46,20.90
2016,08,12,13,47,20.90
2016,08,12,13,48,21.00
2016,08,12,13,49,21.00
2016,08,12,13,50,20.90
2016,08,12,13,51,20.90
2016,08,12,13,52,20.90
2016,08,12,13,53,21.00
2016,08,12,13,54,21.10
2016,08,12,13,55,21.30
2016,08,12,13,56,21.30
2016,08,12,13,57,21.30
2016,08,12,13,58,21.30
2016,08,12,13,59,21.30
2016,08,12,14,00,21.40
2016,08,12,14,01,21.40
2016,08,12,14,02,21.40
2016,08,12,14,03,21.50
2016,08,12,14,04,21.60
2016,08,12,14,05,21.80
2016,08,12,14,06,21.90
2016,08,12,14,07,21.80
2016,08,12,14,08,21.60
2016,08,12,14,09,21.50
2016,08,12,14,10,21.30
2016,08,12,14,11,21.20
2016,08,12,14,12,21.20
2016,08,12,14,13,21.20
2016,08,12,14,14,21.20
2016,08,12,14,15,21.20
2016,08,12,14,16,21.20
2016,08,12,14,17,21.30
2016,08,12,14,18,21.30
2016,08,12,14,19,21.30
2016,08,12,14,20,21.30
2016,08,12,14,21,21.30
2016,08,12,14,22,21.30
2016,08,12,14,23,21.30
2016,08,12,14,24,21.50
2016,08,12,14,25,21.60
2016,08,12,14,26,21.60
2016,08,12,14,27,21.70
2016,08,12,14,28,21.70
2016,08,12,14,29,21.60
2016,08,12,14,30,21.60
2016,08,12,14,31,21.80
2016,08,12,14,32,21.80
2016,08,12,14,33,21.80
2016,08,12,14,34,21.80
2016,08,12,14,35,21.70
2016,08,12,14,36,21.80
2016,08,12,14,37,21.70
2016,08,12,14,38,21.80
2016,08,12,14,39,21.70
2016,08,12,14,40,21.70
2016,08,12,14,41,21.70
2016,08,12,14,42,21.60
2016,08,12,14,43,21.60
2016,08,12,14,44,21.60
2016,08,12,14,45,21.60
2016,08,12,14,46,21.70
2016,08,12,14,47,21.70
2016,08,12,14,48,21.60
2016,08,12,14,49,21.50
2016,08,12,14,50,21.30
2016,08,12,14,51,21.30
2016,08,12,14,52,21.30
2016,08,12,14,53,21.30
2016,08,12,14,54,21.30
2016,08,12,14,55,21.30
2016,08,12,14,56,21.50
2016,08,12,14,57,21.60
2016,08,12,14,58,21.60
2016,08,12,14,59,21.70
2016,08,12,15,00,21.80
2016,08,12,15,01,21.80
2016,08,12,15,02,21.90
2016,08,12,15,03,21.90
2016,08,12,15,04,21.90
2016,08,12,15,05,21.80
2016,08,12,15,06,21.70
2016,08,12,15,07,21.80
2016,08,12,15,08,21.90
2016,08,12,15,09,21.80
2016,08,12,15,10,21.80
2016,08,12,15,11,21.70
2016,08,12,15,12,21.70
2016,08,12,15,13,21.80
2016,08,12,15,14,21.80
2016,08,12,15,15,21.80
2016,08,12,15,16,21.80
2016,08,12,15,17,21.70
2016,08,12,15,18,21.90
2016,08,12,15,19,22.00
2016,08,12,15,20,22.00
2016,08,12,15,21,21.90
2016,08,12,15,22,21.90
2016,08,12,15,23,21.90
2016,08,12,15,24,21.90
2016,08,12,15,25,21.90
2016,08,12,15,26,21.90
2016,08,12,15,27,21.90
2016,08,12,15,28,22.10
2016,08,12,15,29,22.20
2016,08,12,15,30,22.30
2016,08,12,15,31,22.30
2016,08,12,15,32,22.30
2016,08,12,15,33,22.30
2016,08,12,15,34,22.40
2016,08,12,15,35,22.30
2016,08,12,15,36,22.20
2016,08,12,15,37,22.10
2016,08,12,15,38,22.10
2016,08,12,15,39,22.10
2016,08,12,15,40,22.10
2016,08,12,15,41,22.00
2016,08,12,15,42,22.10
2016,08,12,15,43,22.10
2016,08,12,15,44,22.10
2016,08,12,15,45,22.10
2016,08,12,15,46,22.10
2016,08,12,15,47,22.00
2016,08,12,15,48,22.00
2016,08,12,15,49,22.10
2016,08,12,15,50,22.20
2016,08,12,15,51,22.30
2016,08,12,15,52,22.40
2016,08,12,15,53,22.60
2016,08,12,15,54,22.60
2016,08,12,15,55,22.50
2016,08,12,15,56,22.40
2016,08,12,15,57,22.40
2016,08,12,15,58,22.30
2016,08,12,15,59,22.30
2016,08,12,16,00,22.30
2016,08,12,16,01,22.30
2016,08,12,16,02,22.30
2016,08,12,16,03,22.30
2016,08,12,16,04,22.50
2016,08,12,16,05,22.60
2016,08,12,16,06,22.60
2016,08,12,16,07,22.60
2016,08,12,16,08,22.50
2016,08,12,16,09,22.40
2016,08,12,16,10,22.40
2016,08,12,16,11,22.40
2016,08,12,16,12,22.40
2016,08,12,16,13,22.50
2016,08,12,16,14,22.60
2016,08,12,16,15,22.50
2016,08,12,16,16,22.60
2016,08,12,16,17,22.60
2016,08,12,16,18,22.70
2016,08,12,16,19,22.80
2016,08,12,16,20,22.80
2016,08,12,16,21,22.70
2016,08,12,16,22,22.60
2016,08,12,16,23,22.60
2016,08,12,16,24,22.70
2016,08,12,16,25,22.80
2016,08,12,16,26,22.90
2016,08,12,16,27,22.90
2016,08,12,16,28,22.90
2016,08,12,16,29,22.90
2016,08,12,16,30,22.90
2016,08,12,16,31,22.90
2016,08,12,16,32,22.90
2016,08,12,16,33,22.90
2016,08,12,16,34,22.90
2016,08,12,16,35,22.90
2016,08,12,16,36,22.90
2016,08,12,16,37,22.90
2016,08,12,16,38,22.90
2016,08,12,16,39,22.90
2016,08,12,16,40,22.90
2016,08,12,16,41,22.80
2016,08,12,16,42,22.70
2016,08,12,16,43,22.80
2016,08,12,16,44,22.80
2016,08,12,16,45,22.90
2016,08,12,16,46,22.90
2016,08,12,16,47,23.00
2016,08,12,16,48,23.10
2016,08,12,16,49,23.10
2016,08,12,16,50,23.20
2016,08,12,16,51,23.30
2016,08,12,16,52,23.30
2016,08,12,16,53,23.50
2016,08,12,16,54,23.60
2016,08,12,16,55,23.60
2016,08,12,16,56,23.70
2016,08,12,16,57,23.70
2016,08,12,16,58,23.80
2016,08,12,16,59,23.90
2016,08,12,17,00,24.00
2016,08,12,17,01,24.10
2016,08,12,17,02,24.10
2016,08,12,17,03,24.30
2016,08,12,17,04,24.30
2016,08,12,17,05,24.30
2016,08,12,17,06,24.30
2016,08,12,17,07,24.40
2016,08,12,17,08,24.50
2016,08,12,17,09,24.50
2016,08,12,17,10,24.50
2016,08,12,17,11,24.60
2016,08,12,17,12,24.70
2016,08,12,17,13,24.80
2016,08,12,17,14,24.80
2016,08,12,17,15,24.80
2016,08,12,17,16,24.90
2016,08,12,17,17,24.90
2016,08,12,17,18,25.00
2016,08,12,17,19,25.10